Location: Newark
(43.5831°N, 21.3381°E)
Time: 05:50:40
(UTC+00:00)

Envisat - Pass Details

Date: 17 December 2019
Orbit: 764 x 766 km, 98.1° (Epoch: 20 January)

Event Time Altitude Azimuth Distance (km) Brightness Sun altitude
Rises 05:19:12 0° 14° (NNE) 3,242 6.1 -7.6°
Reaches altitude 10° 05:21:31 10° 16° (NNE) 2,311 5.4 -7.3°
Maximum altitude 05:26:37 76° 102° (ESE) 791 3.3 -6.4°
Drops below altitude 10° 05:31:41 10° 189° (S) 2,294 5.7 -5.6°
Sets 05:33:59 0° 191° (S) 3,215 6.5 -5.2°
